W4SNA-4 Weather Reports


time (UTC)temp
C
wind
direction
speed
KPH
gust
KPH
rain 1hr
cm
rain 24hr
cm
rain mn
cm
humidity
%
barometer
mb
20260510190836 26 0 0.0 0.0 0.00 0.00 0.00 35 1010.7
20260510185848 26 0 0.0 0.0 0.00 0.00 0.00 33 1010.7
20260510185347 26 0 0.0 0.0 0.00 0.00 0.00 37 1010.8
20260510184847 26 0 0.0 0.0 0.00 0.00 0.00 34 1010.8
20260510184348 26 0 0.0 0.0 0.00 0.00 0.00 34 1010.8
20260510183847 26 0 0.0 0.0 0.00 0.00 0.00 32 1010.8
20260510183348 26 0 0.0 0.0 0.00 0.00 0.00 36 1010.8
20260510182849 26 0 0.0 0.0 0.00 0.00 0.00 37 1010.8
20260510182347 26 0 0.0 0.0 0.00 0.00 0.00 35 1011.0
20260510181848 26 0 0.0 0.0 0.00 0.00 0.00 38 1011.0
20260510181347 26 0 0.0 0.0 0.00 0.00 0.00 34 1011.0
20260510180847 26 0 0.0 0.0 0.00 0.00 0.00 39 1011.1
20260510180348 26 0 0.0 0.0 0.00 0.00 0.00 39 1011.1
20260510175847 26 0 0.0 0.0 0.00 0.00 0.00 37 1011.1
20260510175347 26 0 0.0 0.0 0.00 0.00 0.00 35 1011.3
20260510174853 26 0 0.0 0.0 0.00 0.00 0.00 35 1011.3
20260510174347 25 0 0.0 0.0 0.00 0.00 0.00 34 1011.3
20260510173848 25 0 0.0 0.0 0.00 0.00 0.00 39 1011.4
20260510173347 25 0 0.0 0.0 0.00 0.00 0.00 40 1011.4
20260510172847 25 0 0.0 0.0 0.00 0.00 0.00 37 1011.4
20260510172348 25 0 0.0 0.0 0.00 0.00 0.00 40 1011.5
20260510171849 25 0 0.0 0.0 0.00 0.00 0.00 39 1011.5
20260510171347 25 0 0.0 0.0 0.00 0.00 0.00 38 1011.5
20260510170849 25 0 0.0 0.0 0.00 0.00 0.00 37 1011.5
20260510170347 25 0 0.0 0.0 0.00 0.00 0.00 35 1011.5
20260510165847 25 0 0.0 0.0 0.00 0.00 0.00 36 1011.5
20260510165348 26 0 0.0 0.0 0.00 0.00 0.00 38 1011.5
20260510164847 26 0 0.0 0.0 0.00 0.00 0.00 39 1011.5
20260510164347 25 0 0.0 0.0 0.00 0.00 0.00 39 1011.5
20260510163848 25 0 0.0 0.0 0.00 0.00 0.00 37 1011.6
20260510163347 25 0 0.0 0.0 0.00 0.00 0.00 37 1011.6
20260510162847 25 0 0.0 0.0 0.00 0.00 0.00 42 1011.6
20260510162347 25 0 0.0 0.0 0.00 0.00 0.00 46 1011.8
20260510161731 25 0 0.0 0.0 0.00 0.00 0.00 48 1011.8
20260510161231 25 0 0.0 0.0 0.00 0.00 0.00 45 1011.8
20260510161004 25 0 0.0 0.0 0.00 0.00 0.00 46 1011.8
20260510160611 25 0 0.0 0.0 0.00 0.00 0.00 46 1011.8
20260510160108 25 0 0.0 0.0 0.00 0.00 0.00 47 1011.8
20260510155612 24 0 0.0 0.0 0.00 0.00 0.00 47 1011.8
20260510155108 24 0 0.0 0.0 0.00 0.00 0.00 48 1011.9
20260510154609 24 0 0.0 0.0 0.00 0.00 0.00 54 1011.9
20260510154109 24 0 0.0 0.0 0.00 0.00 0.00 48 1011.9
20260510153608 24 0 0.0 0.0 0.00 0.00 0.00 48 1011.8
20260510153109 24 0 0.0 0.0 0.00 0.00 0.00 49 1011.8
20260510152608 24 0 0.0 0.0 0.00 0.00 0.00 50 1011.8
20260510152108 24 0 0.0 0.0 0.00 0.00 0.00 50 1011.9
20260510151609 24 0 0.0 0.0 0.00 0.00 0.00 53 1011.9
20260510151108 24 0 0.0 0.0 0.00 0.00 0.00 55 1011.9
20260510150611 23 0 0.0 0.0 0.00 0.00 0.00 59 1011.8
20260510150109 23 0 0.0 0.0 0.00 0.00 0.00 59 1011.8
20260510145608 23 0 0.0 0.0 0.00 0.00 0.00 60 1011.8
20260510145108 22 0 0.0 0.0 0.00 0.00 0.00 64 1011.9
20260510144609 22 0 0.0 0.0 0.00 0.00 0.00 66 1011.9
20260510144111 21 0 0.0 0.0 0.00 0.00 0.00 65 1011.9
20260510143611 21 0 0.0 0.0 0.00 0.00 0.00 64 1011.9
20260510143210 21 0 0.0 0.0 0.00 0.00 0.00 68 1011.9
20260510143109 21 0 0.0 0.0 0.00 0.00 0.00 68 1011.9
20260510142608 21 0 0.0 0.0 0.00 0.00 0.00 69 1011.9
20260510142108 20 0 0.0 0.0 0.00 0.00 0.00 72 1011.9
20260510141609 20 0 0.0 0.0 0.00 0.00 0.00 72 1011.9
20260510141114 20 0 0.0 0.0 0.00 0.00 0.00 71 1011.9
20260510140608 20 0 0.0 0.0 0.00 0.00 0.00 76 1011.8
20260510140108 19 0 0.0 0.0 0.00 0.00 0.00 76 1011.8
20260510135608 19 0 0.0 0.0 0.00 0.00 0.00 80 1011.8
20260510135108 18 0 0.0 0.0 0.00 0.00 0.00 80 1011.7
20260510134608 18 0 0.0 0.0 0.00 0.00 0.00 81 1011.7
20260510134112 18 0 0.0 0.0 0.00 0.00 0.00 82 1011.7
20260510133618 18 0 0.0 0.0 0.00 0.00 0.00 83 1011.6
20260510133109 17 0 0.0 0.0 0.00 0.00 0.00 83 1011.6
20260510132609 17 0 0.0 0.0 0.00 0.00 0.00 83 1011.6
20260510132111 17 0 0.0 0.0 0.00 0.00 0.00 84 1011.7
20260510131612 17 0 0.0 0.0 0.00 0.00 0.00 85 1011.7
20260510131109 17 0 0.0 0.0 0.00 0.00 0.00 85 1011.7
20260510130619 17 0 0.0 0.0 0.00 0.00 0.00 84 1011.5
20260510130108 16 0 0.0 0.0 0.00 0.00 0.00 85 1011.5
20260510125625 16 0 0.0 0.0 0.00 0.00 0.00 85 1011.5
20260510125120 16 0 0.0 0.0 0.00 0.00 0.00 87 1011.5
20260510124612 16 0 0.0 0.0 0.00 0.00 0.00 88 1011.5
20260510124108 16 0 0.0 0.0 0.00 0.00 0.00 89 1011.5
20260510123612 16 0 0.0 0.0 0.00 0.00 0.00 90 1011.3
20260510123108 16 0 0.0 0.0 0.00 0.00 0.00 91 1011.3
20260510122612 16 0 0.0 0.0 0.00 0.00 0.00 91 1011.3
20260510122108 16 0 0.0 0.0 0.00 0.00 0.00 91 1010.9
20260510121612 16 0 0.0 0.0 0.00 0.00 0.00 91 1010.9
20260510121111 16 0 0.0 0.0 0.00 0.00 0.00 90 1010.9
20260510120612 16 0 0.0 0.0 0.00 0.00 0.00 87 1010.4
20260510120108 16 0 0.0 0.0 0.00 0.00 0.00 83 1010.4
20260510115613 16 0 0.0 0.0 0.00 0.00 0.00 84 1010.4
20260510115119 16 0 0.0 0.0 0.00 0.00 0.00 87 1010.4
20260510114622 16 0 0.0 0.0 0.00 0.00 0.00 89 1010.4
20260510114109 16 0 0.0 0.0 0.00 0.00 0.00 90 1010.4
20260510113630 16 0 0.0 0.0 0.00 0.00 0.00 89 1010.2
20260510113109 16 0 0.0 0.0 0.00 0.00 0.00 87 1010.2
20260510112612 16 0 0.0 0.0 0.00 0.00 0.00 84 1010.2
20260510112119 16 0 0.0 0.0 0.00 0.00 0.00 81 1009.9
20260510111620 16 0 0.0 0.0 0.00 0.00 0.00 82 1009.9
20260510111109 16 0 0.0 0.0 0.00 0.00 0.00 82 1009.9
20260510110619 16 0 0.0 0.0 0.00 0.00 0.00 82 1009.7
20260510110108 16 0 0.0 0.0 0.00 0.00 0.00 83 1009.7
20260510105610 16 0 0.0 0.0 0.00 0.00 0.00 84 1009.7
20260510105113 16 0 0.0 0.0 0.00 0.00 0.00 84 1009.4
20260510104611 15 0 0.0 0.0 0.00 0.00 0.00 87 1009.4
20260510104108 15 0 0.0 0.0 0.00 0.00 0.00 91 1009.4
20260510103612 15 0 0.0 0.0 0.00 0.00 0.00 91 1009.3
20260510103111 15 0 0.0 0.0 0.00 0.00 0.00 93 1009.3
20260510102620 15 0 0.0 0.0 0.00 0.00 0.00 95 1009.3
20260510102120 15 0 0.0 0.0 0.00 0.00 0.00 95 1009.2
20260510101620 15 0 0.0 0.0 0.00 0.00 0.00 95 1009.2
20260510101111 15 0 0.0 0.0 0.00 0.00 0.00 95 1009.2
20260510100623 15 0 0.0 0.0 0.00 0.00 0.00 95 1008.8
20260510100110 15 0 0.0 0.0 0.00 0.00 0.00 95 1008.8
20260510095608 15 0 0.0 0.0 0.00 0.00 0.00 95 1008.8
20260510095119 15 0 0.0 0.0 0.00 0.00 0.00 95 1008.8
20260510094610 15 0 0.0 0.0 0.00 0.00 0.00 95 1008.8
20260510093841 15 0 0.0 0.0 0.00 0.00 0.00 94 1008.7
20260510093338 16 0 0.0 0.0 0.00 0.00 0.00 94 1008.7
20260510092840 16 0 0.0 0.0 0.00 0.00 0.00 94 1008.7
20260510092341 16 0 0.0 0.0 0.00 0.00 0.00 94 1008.6
20260510091837 16 0 0.0 0.0 0.00 0.00 0.00 94 1008.6
20260510091338 16 0 0.0 0.0 0.00 0.00 0.00 94 1008.6
20260510090837 16 0 0.0 0.0 0.00 0.00 0.00 94 1008.3
20260510090337 16 0 0.0 0.0 0.00 0.00 0.00 93 1008.3
20260510085838 16 0 0.0 0.0 0.00 0.00 0.00 93 1008.3
20260510085338 16 0 0.0 0.0 0.00 0.00 0.00 93 1008.3
20260510084840 16 0 0.0 0.0 0.00 0.00 0.00 93 1008.3
20260510084341 16 0 0.0 0.0 0.00 0.00 0.00 93 1008.3
20260510083838 16 0 0.0 0.0 0.00 0.00 0.00 93 1008.1
20260510083337 16 0 0.0 0.0 0.00 0.00 0.00 93 1008.1
20260510082839 16 0 0.0 0.0 0.00 0.00 0.00 93 1008.1
20260510082337 16 0 0.0 0.0 0.00 0.00 0.00 93 1007.9
20260510081837 16 0 0.0 0.0 0.00 0.00 0.00 93 1007.9
20260510081139 16 0 0.0 0.0 0.00 0.00 0.00 92 1007.9
20260510080645 16 0 0.0 0.0 0.00 0.00 0.00 92 1007.7
20260510080144 16 0 0.0 0.0 0.00 0.00 0.00 92 1007.7
20260510075643 16 0 0.0 0.0 0.00 0.00 0.00 92 1007.7
20260510075143 16 0 0.0 0.0 0.00 0.00 0.00 92 1007.7
20260510074635 16 0 0.0 0.0 0.00 0.00 0.00 92 1007.7
20260510074137 16 0 0.0 0.0 0.00 0.00 0.00 92 1007.7
20260510073634 16 0 0.0 0.0 0.00 0.00 0.00 92 1007.6
20260510073139 16 0 0.0 0.0 0.00 0.00 0.00 91 1007.6
20260510072635 16 0 0.0 0.0 0.00 0.00 0.00 91 1007.6
20260510072139 17 0 0.0 0.0 0.00 0.00 0.00 91 1007.5
20260510071635 17 0 0.0 0.0 0.00 0.00 0.00 91 1007.5
20260510071137 17 0 0.0 0.0 0.00 0.00 0.00 91 1007.5
20260510070635 17 0 0.0 0.0 0.00 0.00 0.00 91 1007.6
20260510070136 17 0 0.0 0.0 0.00 0.00 0.00 90 1007.6
20260510065640 17 0 0.0 0.0 0.00 0.00 0.00 90 1007.6
20260510064743 17 0 0.0 0.0 0.00 0.00 0.00 90 1007.4
20260510064305 17 0 0.0 0.0 0.00 0.00 0.00 90 1007.4
20260510063802 17 0 0.0 0.0 0.00 0.00 0.00 90 1007.7
20260510063245 17 0 0.0 0.0 0.00 0.00 0.00 90 1007.7
20260510062747 17 0 0.0 0.0 0.00 0.00 0.00 90 1007.7
20260510062249 17 0 0.0 0.0 0.00 0.00 0.00 90 1007.7
20260510061749 17 0 0.0 0.0 0.00 0.00 0.00 89 1007.7
20260510061243 17 0 0.0 0.0 0.00 0.00 0.00 89 1007.7
20260510060743 17 0 0.0 0.0 0.00 0.00 0.00 89 1007.8
20260510060246 17 0 0.0 0.0 0.00 0.00 0.00 90 1007.8
20260510055749 17 0 0.0 0.0 0.00 0.00 0.00 90 1007.8
20260510055240 17 0 0.0 0.0 0.00 0.00 0.00 90 1007.8
20260510055114 17 0 0.0 0.0 0.00 0.00 0.00 90 1007.8
20260510054743 17 0 0.0 0.0 0.00 0.00 0.00 90 1007.8
20260510054241 17 0 0.0 0.0 0.00 0.00 0.00 90 1007.8
20260510053746 17 0 0.0 0.0 0.00 0.00 0.00 89 1007.7
20260510053240 17 0 0.0 0.0 0.00 0.00 0.00 89 1007.7
20260510052740 17 0 0.0 0.0 0.00 0.00 0.00 89 1007.7
20260510052244 17 0 0.0 0.0 0.00 0.00 0.00 89 1008.0
20260510051747 17 0 0.0 0.0 0.00 0.00 0.00 89 1008.0
20260510051240 17 0 0.0 0.0 0.00 0.00 0.00 89 1008.0
20260510050740 17 0 0.0 0.0 0.00 0.00 0.00 89 1008.0
20260510050243 17 0 0.0 0.0 0.00 0.00 0.00 89 1008.0
20260510045746 17 0 0.0 0.0 0.00 0.00 0.00 88 1008.0
20260510045240 17 0 0.0 0.0 0.00 0.00 0.00 88 1008.0
20260510044741 17 0 0.0 0.0 0.00 0.00 0.00 88 1008.0
20260510044240 17 0 0.0 0.0 0.00 0.00 0.00 88 1008.0
20260510043746 17 0 0.0 0.0 0.00 0.00 0.00 88 1008.2
20260510043241 17 0 0.0 0.0 0.00 0.00 0.00 88 1008.2
20260510042741 17 0 0.0 0.0 0.00 0.00 0.00 88 1008.2
20260510042244 17 0 0.0 0.0 0.00 0.00 0.00 88 1008.2
20260510041746 17 0 0.0 0.0 0.00 0.00 0.00 88 1008.2
20260510041240 17 0 0.0 0.0 0.00 0.00 0.00 88 1008.2
20260510040740 17 0 0.0 0.0 0.00 0.00 0.00 88 1008.2
20260510040003 17 0 0.0 0.0 0.00 0.00 0.00 87 1008.2
20260510035700 17 0 0.0 0.0 0.00 0.00 0.00 87 1008.2
20260510035501 17 0 0.0 0.0 0.00 0.00 0.00 87 1008.2
20260510035002 17 0 0.0 0.0 0.00 0.00 0.00 87 1008.2
20260510034502 17 0 0.0 0.0 0.00 0.00 0.00 87 1008.2
20260510034008 18 0 0.0 0.0 0.00 0.00 0.00 87 1008.0
20260510033526 18 0 0.0 0.0 0.00 0.00 0.00 87 1008.0
20260510033002 18 0 0.0 0.0 0.00 0.00 0.00 87 1008.0
20260510032504 18 0 0.0 0.0 0.00 0.00 0.00 86 1008.1
20260510032002 18 0 0.0 0.0 0.00 0.00 0.00 86 1008.1
20260510031502 18 0 0.0 0.0 0.00 0.00 0.00 86 1008.1
20260510031007 18 0 0.0 0.0 0.00 0.00 0.00 86 1008.0
20260510030502 18 0 0.0 0.0 0.00 0.00 0.00 86 1008.0
20260510030002 18 0 0.0 0.0 0.00 0.00 0.00 86 1008.0
20260510025501 18 0 0.0 0.0 0.00 0.00 0.00 85 1007.9
20260510025002 18 0 0.0 0.0 0.00 0.00 0.00 85 1007.9
20260510024502 18 0 0.0 0.0 0.00 0.00 0.00 85 1007.9
20260510024001 18 0 0.0 0.0 0.00 0.00 0.00 85 1007.8
20260510023502 18 0 0.0 0.0 0.00 0.00 0.00 85 1007.8
20260510023001 18 0 0.0 0.0 0.00 0.00 0.00 84 1007.8
20260510022501 18 0 0.0 0.0 0.00 0.00 0.00 84 1007.8
20260510022002 18 0 0.0 0.0 0.00 0.00 0.00 84 1007.8
20260510021501 18 0 0.0 0.0 0.00 0.00 0.00 84 1007.8
20260510021006 18 0 0.0 0.0 0.00 0.00 0.00 84 1007.7
20260510020505 18 0 0.0 0.0 0.00 0.00 0.00 84 1007.7
20260510020001 18 0 0.0 0.0 0.00 0.00 0.00 84 1007.7
20260510015505 18 0 0.0 0.0 0.00 0.00 0.00 83 1007.4
20260510015003 18 0 0.0 0.0 0.00 0.00 0.00 83 1007.4
20260510014505 18 0 0.0 0.0 0.00 0.00 0.00 83 1007.4
20260510014006 18 0 0.0 0.0 0.00 0.00 0.00 83 1007.2
20260510013506 18 0 0.0 0.0 0.00 0.00 0.00 83 1007.2
20260510013001 18 0 0.0 0.0 0.00 0.00 0.00 83 1007.2
20260510012505 18 0 0.0 0.0 0.00 0.00 0.00 82 1006.9
20260510012002 18 0 0.0 0.0 0.00 0.00 0.00 82 1006.9
20260510011505 18 0 0.0 0.0 0.00 0.00 0.00 82 1006.9
20260510011006 18 0 0.0 0.0 0.00 0.00 0.00 82 1006.8
20260510010506 19 0 0.0 0.0 0.00 0.00 0.00 82 1006.8
20260510010002 19 0 0.0 0.0 0.00 0.00 0.00 82 1006.8
20260510005508 19 0 0.0 0.0 0.00 0.00 0.00 81 1006.5
20260510005001 19 0 0.0 0.0 0.00 0.00 0.00 81 1006.5
20260510004501 19 0 0.0 0.0 0.00 0.00 0.00 81 1006.5
20260510004049 19 0 0.0 0.0 0.00 0.00 0.00 80 1006.3
20260510004010 19 0 0.0 0.0 0.00 0.00 0.00 80 1006.3
20260510003505 19 0 0.0 0.0 0.00 0.00 0.00 80 1006.3
20260510003003 20 0 0.0 0.0 0.00 0.00 0.00 79 1006.3
20260510002507 20 0 0.0 0.0 0.00 0.00 0.00 79 1006.2
20260510002001 20 0 0.0 0.0 0.00 0.00 0.00 79 1006.2
20260510001514 20 0 0.0 0.0 0.00 0.00 0.00 79 1006.2
20260510001002 20 0 0.0 0.0 0.00 0.00 0.00 79 1006.1
20260510000519 20 0 0.0 1.6 0.00 0.00 0.00 78 1006.1
20260510000002 20 0 0.0 1.6 0.00 0.00 0.00 78 1006.1
20260509235502 20 0 0.0 0.0 0.00 0.00 0.00 78 1005.9
20260509235001 20 0 0.0 1.6 0.00 0.00 0.00 78 1005.9
20260509234502 20 0 0.0 1.6 0.00 0.00 0.00 78 1005.9
20260509234001 20 0 0.0 0.0 0.00 0.00 0.00 77 1005.8
20260509233507 20 0 0.0 0.0 0.00 0.00 0.00 77 1005.8
20260509233003 20 0 0.0 0.0 0.00 0.00 0.00 76 1005.8
20260509232439 20 0 0.0 0.0 0.00 0.00 0.00 76 1006.0
20260509231945 20 0 0.0 0.0 0.00 0.00 0.00 76 1006.0
20260509231439 21 0 0.0 0.0 0.00 0.00 0.00 75 1006.0
20260509230810 21 0 0.0 3.2 0.00 0.00 0.00 75 1005.6
20260509230311 21 0 0.0 1.6 0.00 0.00 0.00 75 1005.6
20260509225819 21 0 0.0 0.0 0.00 0.00 0.00 75 1005.6
20260509225311 21 0 0.0 0.0 0.00 0.00 0.00 74 1005.7
20260509224811 21 0 0.0 0.0 0.00 0.00 0.00 75 1005.7
20260509224314 21 0 0.0 0.0 0.00 0.00 0.00 73 1005.7
20260509223810 21 0 0.0 0.0 0.00 0.00 0.00 73 1005.4
20260509223319 21 0 0.0 0.0 0.00 0.00 0.00 73 1005.4
20260509222820 21 0 0.0 0.0 0.00 0.00 0.00 74 1005.4
20260509222310 21 0 0.0 0.0 0.00 0.00 0.00 73 1005.2
20260509221336 21 0 0.0 0.0 0.00 0.00 0.00 73 1005.2
20260509220836 21 0 0.0 0.0 0.00 0.00 0.00 72 1005.3
20260509220336 21 0 0.0 0.0 0.00 0.00 0.00 74 1005.3
20260509215836 21 0 0.0 1.6 0.00 0.00 0.00 71 1005.3
20260509215336 21 0 0.0 1.6 0.00 0.00 0.00 71 1005.4
20260509214837 21 0 0.0 0.0 0.00 0.00 0.00 73 1005.4
20260509214336 21 0 0.0 1.6 0.00 0.00 0.00 70 1005.4
20260509213839 21 0 0.0 1.6 0.00 0.00 0.00 70 1005.2
20260509213019 22 0 0.0 0.0 0.00 0.00 0.00 71 1005.2
20260509212524 22 0 0.0 0.0 0.00 0.00 0.00 75 1005.2
20260509212025 22 0 0.0 0.0 0.00 0.00 0.00 71 1005.2
20260509211520 22 0 0.0 0.0 0.00 0.00 0.00 71 1005.2
20260509211020 22 0 0.0 0.0 0.00 0.00 0.00 72 1005.2
20260509210519 22 0 0.0 0.0 0.00 0.00 0.00 75 1005.2
20260509210020 21 0 0.0 0.0 0.00 0.00 0.00 70 1005.2
20260509205519 21 0 0.0 0.0 0.00 0.00 0.00 72 1005.2
20260509205019 21 0 0.0 0.0 0.00 0.00 0.00 71 1005.1
20260509204520 21 0 0.0 0.0 0.00 0.00 0.00 70 1005.1
20260509204021 21 0 0.0 0.0 0.00 0.00 0.00 71 1005.1
20260509203519 21 0 0.0 0.0 0.00 0.00 0.00 71 1005.0
20260509203020 21 0 0.0 0.0 0.00 0.00 0.00 71 1005.0
20260509202519 21 0 0.0 0.0 0.00 0.00 0.00 71 1005.0
20260509202029 21 0 0.0 0.0 0.00 0.00 0.00 70 1005.2
20260509201520 21 0 0.0 0.0 0.00 0.00 0.00 71 1005.2
20260509201019 22 0 0.0 0.0 0.00 0.00 0.00 73 1005.2
20260509200031 22 0 0.0 0.0 0.00 0.00 0.00 71 1005.3
20260509195531 22 0 0.0 1.6 0.00 0.00 0.00 70 1005.3
20260509195031 22 0 0.0 1.6 0.00 0.00 0.00 70 1005.4
20260509194531 22 0 0.0 1.6 0.00 0.00 0.00 71 1005.4
20260509194031 22 0 0.0 3.2 0.00 0.00 0.00 71 1005.4
20260509193531 22 0 0.0 3.2 0.00 0.00 0.00 69 1005.6
20260509192751 22 0 0.0 0.0 0.00 0.00 0.00 73 1005.6
20260509192251 21 0 0.0 0.0 0.00 0.00 0.00 71 1005.7
20260509191750 21 0 0.0 0.0 0.00 0.00 0.00 71 1005.7
20260509191251 21 0 0.0 0.0 0.00 0.00 0.00 70 1005.7